Temp
75 72 70 69 69 66 67 65 65 65 68 70 68 68 67 68 69 69 67 66 64 64 63 65 64 64 62 61 61 59 58 60 63 62 66 72 75 74 76 79 77 77 78
72 67 67 66 67 65 65 65 65 65 66 68 67 66 66 68 68 68 66 66 64 63 63 61 61 60 59 58 59 55 54 56 60 56 57 61 70 77 78 79 78 76 75
70 66 65 65 66 65 63 64 64 64 64 63 69 67 69 70 69 65 66 65 64 63 62 61 59 57 55 55 54 54 53 51 55 56 52 55 61 62 73 73 78 77 73
72 68 66 65 65 64 63 64 63 63 63 63 64 61 63 62 63 64 65 63 64 62 61 60 59 56 54 53 52 54 51 51 49 53 57 56 55 50 54 67 69 68 68
70 68 66 66 65 63 62 62 63 62 62 61 61 61 60 62 63 63 61 62 62 62 61 59 58 55 54 52 51 50 50 51 50 50 51 52 53 54 54 56 63 70 68
70 68 66 65 63 61 61 61 61 61 61 60 60 58 57 57 59 59 59 60 60 61 60 59 56 55 53 51 50 50 49 50 50 50 50 49 48 49 52 55 59 63 71
66 63 61 61 62 60 59 60 60 60 59 59 58 58 57 57 57 58 58 56 57 57 57 56 54 52 50 49 49 49 48 48 48 49 48 49 50 51 51 50 53 57 65
64 62 61 62 59 58 58 58 58 58 59 58 57 58 57 58 58 57 56 56 56 56 55 54 52 50 49 49 49 48 48 48 48 47 48 48 49 51 50 49 49 50 58
62 61 62 61 60 59 56 55 55 57 57 56 56 56 56 55 54 54 54 55 55 55 54 52 50 48 48 48 48 47 46 47 46 47 47 47 48 50 50 49 50 49 47
60 61 60 59 59 59 57 55 55 55 55 55 55 55 54 54 53 52 50 50 51 52 51 50 48 46 46 46 46 46 46 45 46 47 46 46 48 49 50 50 50 48 50
59 59 58 58 58 57 57 54 54 53 53 53 52 52 52 51 51 50 49 48 48 50 48 47 46 44 44 44 44 44 44 44 43 44 44 44 46 45 48 50 51 51 48
59 59 57 55 55 54 54 53 52 52 52 52 51 51 50 49 49 48 46 46 46 48 47 46 45 44 43 43 42 42 43 41 41 41 42 42 45 43 45 46 46 49 52
59 58 50 47 50 50 50 51 51 51 50 50 50 49 47 47 47 46 44 45 45 45 46 45 43 42 41 41 41 41 40 39 40 41 41 41 41 41 42 43 43 44 48
58 55 38 34 41 45 47 48 48 49 49 49 49 47 46 46 46 44 44 45 44 44 44 44 42 42 41 41 40 38 37 37 38 40 41 41 42 42 42 43 41 41 41
57 53 39 33 34 37 43 46 46 47 48 48 47 46 46 46 45 42 44 45 44 43 43 41 40 41 40 41 37 36 35 36 37 39 41 43 43 42 41 41 39 38 39
56 53 44 40 38 40 43 45 44 45 47 45 45 46 44 43 42 42 43 43 41 41 40 39 39 38 40 37 36 34 34 36 37 37 40 41 41 42 40 39 38 37 35
55 50 46 43 43 43 44 44 45 45 45 43 44 43 41 40 40 42 42 41 41 41 39 38 39 37 37 36 35 34 35 36 36 37 37 39 42 39 40 38 36 37 37
53 49 46 43 44 46 46 45 46 45 44 44 44 42 39 39 40 40 40 41 41 39 38 38 37 36 37 34 34 33 35 35 36 36 37 37 36 37 34 33 34 36 38
51 46 45 46 47 46 46 46 46 45 43 42 41 41 39 39 39 37 37 39 39 39 37 37 35 35 35 34 32 32 33 33 33 35 36 35 35 33 32 31 31 33 36
45 45 45 47 46 46 47 46 45 44 41 42 41 41 41 39 38 37 38 38 39 37 37 35 35 34 33 33 32 31 31 30 30 32 33 32 31 30 30 30 30 29 32
47 47 48 46 45 46 46 45 44 41 42 44 43 42 41 40 39 37 39 39 37 35 34 32 33 33 32 31 31 30 29 27 27 28 28 30 29 28 30 30 31 29 30
45 47 45 44 45 46 46 44 42 44 44 44 43 42 40 41 40 38 37 37 35 33 30 29 30 31 31 30 30 30 29 29 25 25 26 27 27 28 28 29 29 30 30
46 46 44 42 43 43 44 40 41 44 43 43 41 41 40 41 39 36 34 32 31 28 26 26 26 27 29 28 28 28 28 28 25 25 25 26 26 26 26 27 27 28 28
45 45 43 40 38 40 40 41 42 43 43 41 39 40 38 38 38 36 34 31 27 25 24 23 23 24 25 25 25 25 26 27 25 23 24 23 24 24 24 24 25 27 26
43 42 40 38 38 40 40 41 41 41 39 39 37 37 37 36 36 34 30 30 28 26 23 22 22 21 22 23 25 25 24 25 24 23 23 21 20 19 20 21 22 24 24
40 39 39 39 39 39 38 38 39 38 37 36 36 33 35 35 34 33 32 31 29 28 28 26 24 25 26 26 26 26 27 26 25 22 19 17 17 17 17 18 19 21 21
MSLP
1011.28 1013.05 1014.45 1015.28 1015.55 1016.36 1016.42 1016.82 1016.95 1017.25 1017.06 1016.61 1016.55 1016.41 1016.28 1016.33 1016.32 1016.44 1016.65 1016.80 1016.95 1016.85 1016.53 1015.97 1015.67 1015.43 1015.15 1014.98 1014.61 1014.35 1013.90 1013.18 1012.49 1011.23 1009.32 1007.78 1006.87 1006.41 1006.16 1005.93 1005.88 1005.81 1005.66
1010.80 1013.30 1014.55 1015.33 1015.68 1016.18 1016.63 1016.82 1017.02 1017.32 1017.38 1017.09 1017.03 1017.04 1016.73 1016.45 1016.40 1016.43 1016.69 1016.66 1016.97 1016.93 1016.65 1016.52 1016.28 1016.07 1015.79 1015.52 1014.96 1014.86 1014.55 1013.92 1013.46 1012.71 1011.16 1008.22 1006.20 1005.07 1004.47 1004.62 1004.61 1004.89 1005.24
1010.10 1012.80 1014.18 1015.01 1015.68 1016.10 1016.75 1016.88 1017.26 1017.41 1017.72 1017.71 1016.96 1016.80 1016.30 1016.00 1015.87 1016.52 1016.61 1016.86 1016.97 1016.98 1016.95 1016.76 1016.72 1016.55 1016.51 1015.89 1015.65 1015.35 1014.96 1014.34 1014.04 1013.59 1013.12 1010.64 1007.50 1007.21 1005.18 1004.51 1003.61 1003.55 1004.27
1009.72 1012.13 1013.51 1014.65 1015.48 1016.28 1016.75 1017.01 1017.43 1017.56 1017.80 1017.90 1017.48 1017.44 1016.79 1016.52 1016.78 1016.68 1016.86 1017.04 1016.90 1016.91 1016.87 1016.79 1016.73 1016.72 1016.60 1016.26 1015.94 1015.55 1015.43 1014.97 1014.32 1013.82 1013.15 1012.43 1011.44 1010.06 1007.07 1005.64 1004.91 1005.19 1004.48
1009.50 1011.57 1013.22 1014.37 1015.49 1016.48 1016.81 1017.13 1017.29 1017.64 1017.94 1018.07 1018.04 1017.65 1017.43 1017.30 1017.16 1017.07 1017.14 1016.94 1016.82 1016.77 1016.83 1016.90 1016.82 1016.76 1016.69 1016.45 1016.15 1015.82 1015.55 1015.18 1014.59 1014.07 1013.36 1012.52 1011.76 1011.15 1009.57 1006.88 1005.40 1004.45 1003.95
1009.47 1011.49 1013.45 1014.65 1015.82 1016.81 1016.92 1017.10 1017.23 1017.52 1017.94 1018.19 1018.31 1018.25 1018.15 1018.00 1017.68 1017.47 1017.24 1017.02 1016.98 1016.74 1016.63 1016.86 1017.04 1016.72 1016.58 1016.53 1016.24 1015.86 1015.46 1015.08 1014.63 1014.17 1013.51 1012.79 1012.01 1010.99 1010.10 1008.34 1006.71 1004.97 1003.35
1009.93 1011.95 1013.76 1015.09 1015.73 1016.60 1016.94 1017.14 1017.32 1017.51 1018.00 1018.35 1018.44 1018.45 1018.43 1018.31 1017.94 1017.70 1017.54 1017.65 1017.22 1017.07 1016.94 1017.12 1017.06 1017.13 1017.04 1016.67 1016.17 1015.67 1015.40 1015.09 1014.42 1013.76 1013.13 1012.81 1012.18 1011.39 1010.61 1009.43 1007.75 1005.94 1004.21
1010.45 1012.15 1013.70 1014.67 1016.06 1016.77 1017.04 1017.31 1017.54 1017.70 1018.15 1018.50 1018.65 1018.61 1018.72 1018.50 1018.44 1018.43 1018.46 1018.08 1017.79 1017.53 1017.32 1017.20 1017.38 1017.33 1017.06 1016.53 1015.94 1015.58 1015.18 1014.68 1014.19 1013.63 1012.95 1012.48 1012.07 1011.31 1010.81 1009.72 1008.47 1006.31 1004.62
1010.77 1012.23 1013.47 1014.73 1015.74 1016.48 1017.30 1017.65 1017.76 1017.95 1018.32 1018.67 1018.75 1018.78 1018.89 1018.98 1019.04 1019.14 1019.06 1018.61 1018.35 1017.92 1017.55 1017.45 1017.24 1017.13 1016.91 1016.37 1015.96 1015.49 1015.01 1014.49 1014.01 1013.38 1012.74 1012.15 1011.79 1011.07 1010.41 1009.82 1008.64 1007.38 1004.97
1011.17 1012.35 1013.84 1015.06 1015.75 1016.38 1017.14 1017.70 1017.97 1018.17 1018.56 1018.91 1019.04 1019.06 1019.19 1019.37 1019.32 1019.33 1019.28 1019.18 1018.65 1018.29 1017.94 1017.66 1017.44 1017.21 1016.90 1016.46 1015.81 1015.34 1014.81 1014.35 1013.59 1013.10 1012.59 1011.91 1011.61 1010.77 1010.07 1009.17 1008.12 1007.56 1005.82
1011.43 1012.88 1014.36 1015.48 1016.10 1016.73 1017.25 1017.80 1018.20 1018.48 1018.84 1019.11 1019.28 1019.32 1019.46 1019.47 1019.25 1019.10 1019.22 1019.23 1018.97 1018.43 1018.15 1017.97 1017.60 1017.28 1016.83 1016.39 1015.87 1015.28 1014.73 1014.23 1013.55 1013.22 1012.70 1011.82 1011.49 1010.56 1009.75 1008.66 1007.77 1006.48 1006.00
1011.63 1013.08 1014.64 1016.04 1016.70 1017.17 1017.70 1018.10 1018.59 1018.84 1019.07 1019.22 1019.34 1019.39 1019.66 1019.81 1019.65 1019.56 1019.41 1019.19 1018.85 1018.50 1018.33 1018.02 1017.72 1017.29 1016.79 1016.34 1015.71 1015.25 1014.74 1014.24 1013.58 1013.02 1012.45 1011.52 1010.83 1010.08 1009.44 1008.45 1007.51 1006.46 1005.21
1011.62 1013.47 1015.62 1016.72 1017.56 1018.13 1018.37 1018.47 1018.82 1019.13 1019.40 1019.40 1019.22 1019.47 1019.78 1019.94 1019.88 1019.94 1019.95 1019.41 1018.73 1018.39 1018.22 1017.94 1017.67 1017.29 1016.83 1016.25 1015.70 1015.25 1014.87 1014.33 1013.70 1012.79 1011.92 1011.00 1010.27 1009.38 1008.58 1007.81 1007.15 1006.37 1005.01
1011.54 1013.82 1017.10 1018.41 1018.88 1019.03 1018.93 1018.92 1019.16 1019.58 1019.63 1019.46 1019.48 1019.73 1019.97 1020.04 1019.79 1020.00 1019.85 1019.41 1018.97 1018.52 1018.01 1017.75 1017.62 1017.41 1016.90 1016.40 1015.87 1015.52 1015.04 1014.22 1013.22 1012.21 1011.28 1010.20 1009.28 1008.49 1007.68 1007.11 1006.72 1006.12 1004.85
1011.51 1014.05 1017.33 1018.90 1019.41 1019.77 1019.66 1019.48 1019.67 1019.88 1019.73 1019.59 1019.81 1019.95 1019.98 1020.06 1020.19 1020.22 1019.65 1019.01 1018.76 1018.45 1018.16 1017.91 1017.85 1017.31 1016.88 1016.38 1016.13 1015.87 1015.07 1013.95 1012.45 1011.30 1010.21 1009.24 1008.50 1008.03 1007.29 1006.58 1005.98 1005.65 1004.48
1011.37 1014.00 1017.12 1018.61 1019.33 1019.53 1019.57 1019.59 1019.79 1019.97 1019.85 1019.96 1020.18 1020.24 1020.44 1020.57 1020.54 1020.31 1019.59 1018.99 1018.92 1018.57 1018.37 1018.13 1017.79 1017.30 1016.94 1016.60 1016.23 1015.91 1014.83 1013.26 1011.99 1010.65 1009.46 1008.75 1007.95 1006.82 1006.20 1005.77 1005.31 1005.26 1004.46
1011.72 1014.36 1016.60 1018.22 1018.95 1019.36 1019.30 1019.46 1019.74 1019.99 1020.19 1020.18 1020.37 1020.63 1020.78 1020.76 1020.55 1020.20 1019.53 1019.18 1018.71 1018.49 1018.41 1018.09 1017.57 1017.47 1016.93 1016.53 1015.97 1015.51 1014.57 1012.96 1011.57 1010.51 1009.45 1008.22 1007.30 1006.55 1005.52 1004.82 1004.44 1003.76 1003.09
1012.21 1014.94 1016.88 1018.39 1018.95 1019.04 1019.23 1019.54 1019.85 1020.00 1020.18 1020.14 1020.42 1020.72 1021.05 1020.78 1020.64 1020.45 1019.92 1019.24 1018.73 1018.59 1018.38 1018.06 1017.82 1017.51 1017.01 1016.83 1016.29 1015.43 1014.04 1012.67 1011.58 1010.69 1009.67 1008.37 1007.19 1006.61 1005.95 1004.72 1003.21 1002.07 1001.01
1013.52 1015.85 1017.50 1018.20 1018.52 1018.80 1019.24 1019.40 1019.68 1019.96 1020.20 1020.47 1020.77 1020.81 1021.15 1020.94 1020.75 1020.47 1020.03 1019.52 1019.11 1018.83 1018.61 1018.50 1018.05 1017.56 1017.18 1016.91 1016.34 1015.17 1013.86 1012.65 1011.49 1010.81 1009.35 1008.33 1007.33 1006.70 1006.11 1004.42 1002.45 1000.61 999.37
1015.45 1016.81 1017.72 1018.18 1018.70 1019.09 1019.21 1019.29 1019.64 1020.00 1020.46 1020.61 1020.80 1020.95 1021.03 1020.98 1020.80 1020.63 1020.27 1019.98 1019.47 1019.27 1019.26 1018.84 1018.42 1017.95 1017.51 1017.04 1016.38 1015.56 1014.27 1013.01 1011.87 1010.52 1009.24 1008.42 1007.71 1006.69 1005.42 1003.89 1002.22 1000.19 998.76
1016.11 1017.12 1017.58 1018.24 1018.88 1019.17 1019.33 1019.41 1019.88 1020.23 1020.54 1020.55 1020.66 1020.83 1021.00 1020.87 1020.87 1021.02 1020.66 1020.28 1020.09 1019.89 1019.62 1019.19 1018.70 1018.29 1017.86 1017.28 1016.71 1015.98 1014.88 1013.58 1012.23 1010.89 1009.58 1008.59 1007.63 1006.43 1004.89 1003.56 1002.15 1000.73 999.05
1016.77 1017.39 1017.99 1018.65 1019.27 1019.47 1019.48 1019.81 1020.15 1020.43 1020.56 1020.62 1020.67 1020.82 1021.14 1021.00 1021.08 1021.14 1021.21 1020.94 1020.77 1020.44 1020.09 1019.62 1019.08 1018.63 1018.15 1017.69 1017.09 1016.10 1015.09 1013.99 1012.84 1011.54 1010.35 1009.08 1007.78 1006.28 1004.65 1003.24 1001.90 1000.07 998.20
1016.97 1017.80 1018.54 1019.36 1019.85 1020.09 1020.22 1020.56 1020.87 1020.66 1020.71 1020.79 1020.91 1021.02 1021.46 1021.19 1021.43 1021.55 1021.67 1021.66 1021.63 1021.31 1020.98 1020.48 1019.90 1019.24 1018.65 1018.13 1017.37 1016.32 1015.29 1014.30 1013.28 1012.39 1010.88 1009.37 1007.78 1006.16 1004.61 1003.06 1001.30 999.69 997.89
1017.52 1018.24 1019.02 1019.60 1020.25 1020.76 1021.04 1021.11 1021.30 1021.15 1021.10 1021.23 1021.49 1021.46 1021.70 1021.66 1021.68 1021.90 1022.18 1022.26 1022.45 1022.28 1021.95 1021.50 1020.93 1020.15 1019.24 1018.67 1017.80 1016.76 1015.55 1014.51 1013.48 1012.37 1010.94 1009.73 1008.41 1006.84 1005.30 1003.36 1001.75 1000.04 998.49
1018.34 1019.01 1019.52 1020.10 1020.75 1021.27 1021.53 1021.77 1021.94 1021.83 1021.76 1021.99 1022.23 1022.12 1022.09 1022.15 1022.08 1022.29 1022.84 1022.79 1023.02 1023.20 1022.86 1022.58 1022.03 1021.03 1019.97 1019.37 1018.56 1017.54 1016.14 1015.04 1014.20 1012.75 1011.42 1010.01 1008.53 1006.92 1005.53 1003.82 1002.31 1000.65 998.71
1019.10 1019.67 1020.25 1020.81 1021.42 1021.94 1022.32 1022.60 1022.78 1022.85 1022.61 1022.62 1022.73 1023.10 1022.80 1022.81 1022.80 1022.70 1022.68 1022.91 1023.00 1023.05 1022.97 1022.92 1022.45 1021.72 1020.89 1019.92 1018.85 1017.79 1016.58 1015.54 1014.55 1013.16 1012.05 1010.88 1009.78 1008.38 1006.79 1005.07 1003.22 1001.35 999.46
Wind_Speed
15 13 9 7 7 5 5 4 4 4 4 3 4 4 5 5 5 5 8 8 9 10 10 8 9 9 9 11 11 10 12 11 12 12 12 11 12 14 14 13 13 15 16
17 13 11 9 7 6 5 4 4 4 4 4 3 4 5 4 4 4 7 7 10 10 10 11 10 11 9 11 11 11 10 9 10 9 12 9 9 11 11 13 13 16 12
20 16 14 11 9 7 5 4 4 4 5 6 4 4 4 3 4 7 6 8 9 9 10 10 10 10 10 9 11 10 11 9 9 9 5 8 7 15 10 15 9 11 10
18 17 14 11 8 7 6 5 4 4 5 6 6 7 6 7 7 6 6 8 9 10 10 10 10 11 9 10 9 10 9 9 9 8 8 11 12 6 11 11 14 11 9
18 16 13 12 8 6 6 5 5 5 5 6 7 6 7 7 7 7 10 10 9 9 10 10 12 10 9 10 11 12 10 9 9 9 9 10 8 11 14 17 13 12 8
16 14 11 9 9 7 6 5 4 6 5 5 6 6 7 8 7 8 8 8 9 8 10 12 12 12 12 11 9 10 12 11 12 10 10 9 8 8 11 15 16 18 12
14 13 11 10 9 7 6 5 5 6 5 5 5 6 7 8 8 9 8 11 9 9 10 13 13 12 13 12 11 11 11 12 12 12 9 9 10 10 11 12 14 16 13
14 14 14 11 8 6 6 5 5 4 5 5 6 6 7 6 7 9 9 8 9 10 13 12 13 14 14 13 11 9 10 12 11 16 12 10 10 9 10 11 12 15 15
14 14 12 9 9 7 6 5 4 5 5 5 5 6 6 7 8 9 9 9 11 11 13 14 13 13 14 15 14 9 11 11 11 12 12 11 10 10 11 11 11 12 17
14 14 12 11 9 7 8 6 5 5 5 5 5 5 6 7 7 8 9 11 12 13 13 14 14 14 14 14 13 11 11 12 10 9 13 13 13 13 12 12 10 12 16
14 13 11 10 8 7 6 5 5 5 4 5 5 5 6 7 7 7 9 11 13 13 13 13 14 14 14 13 13 14 13 14 13 14 15 16 17 12 13 13 13 12 13
14 14 12 9 7 6 5 5 4 4 5 5 6 6 8 9 9 9 10 10 12 13 13 14 14 14 14 14 13 14 13 15 16 17 17 17 14 16 15 14 18 16 17
15 14 8 7 6 5 5 4 5 5 6 6 6 6 7 8 9 10 11 11 11 12 13 13 14 15 14 15 14 13 15 17 18 18 19 19 19 17 13 15 14 14 15
16 15 9 7 3 4 4 5 5 5 5 6 6 7 7 9 8 10 11 12 11 12 12 13 14 13 14 14 13 16 18 18 18 19 19 19 18 18 16 13 15 16 16
17 15 11 7 5 4 3 4 4 5 5 7 7 7 8 10 11 11 11 11 11 12 13 13 13 13 11 10 16 16 17 19 20 19 19 17 19 26 21 14 13 16 15
16 15 13 11 7 6 4 4 5 5 6 7 7 9 10 11 10 11 12 11 12 12 13 13 13 12 10 15 23 22 18 20 18 18 19 18 22 19 20 22 20 17 17
15 14 13 10 7 6 4 6 5 5 6 5 6 8 9 9 11 12 13 12 12 12 13 13 13 14 14 21 27 29 18 17 17 18 18 18 15 20 17 19 23 23 26
16 14 11 8 7 6 7 5 5 5 5 6 7 8 9 10 10 12 12 13 12 12 12 13 13 13 12 23 26 30 20 17 17 18 19 19 18 18 20 23 23 23 19
15 12 10 8 7 7 6 6 5 5 6 7 7 8 9 9 10 12 12 13 12 12 13 13 15 15 14 24 28 27 19 17 19 18 17 17 18 25 32 23 23 24 20
14 13 11 9 8 7 6 5 6 7 6 6 6 7 7 9 10 12 12 12 12 12 11 14 14 16 16 23 28 27 14 16 15 17 16 23 23 32 32 21 20 21 20
15 12 10 9 8 7 6 6 7 7 6 6 6 7 8 8 9 10 11 12 12 12 13 14 13 14 15 16 28 30 15 14 15 14 14 14 32 35 33 29 17 21 26
14 12 10 10 8 7 6 7 7 7 6 6 7 8 9 7 8 11 11 12 13 13 14 15 12 11 13 22 25 30 29 27 16 16 15 17 34 33 33 25 33 32 24
12 11 11 10 9 8 8 8 7 6 6 7 8 8 10 8 8 9 11 9 12 11 11 11 12 12 12 12 28 29 29 27 17 15 23 32 33 32 22 32 33 25 16
11 11 11 11 10 9 8 8 7 6 7 7 8 7 8 9 9 7 8 9 10 11 11 11 11 12 12 13 14 14 14 21 18 21 16 18 21 20 20 19 19 15 15
10 10 10 10 10 8 8 8 8 7 7 7 8 8 7 9 8 8 6 7 8 9 10 10 10 12 12 14 23 22 15 14 17 17 13 14 15 17 17 17 18 16 16
11 11 10 10 10 9 8 8 8 8 7 7 7 7 7 7 8 8 7 9 8 8 12 17 13 11 20 25 28 29 27 27 27 13 13 14 15 16 17 18 18 18 20
Wind_Direction
188 166 177 179 158 143 129 94 77 34 351 2 358 349 353 340 347 342 356 345 347 339 330 331 332 335 337 334 325 327 323 324 322 305 290 285 271 256 249 249 251 256 251
183 175 182 182 188 140 136 129 83 55 18 9 349 332 322 334 328 336 336 348 343 338 332 338 334 343 334 326 333 335 322 317 317 323 307 289 296 259 247 232 235 242 248
182 184 191 184 176 154 141 120 86 59 45 359 349 347 313 319 354 354 341 355 336 336 332 333 333 333 326 325 328 325 318 317 313 301 293 304 315 333 304 319 271 246 241
181 188 186 179 177 146 137 120 89 48 46 16 1 355 350 342 349 327 341 324 336 334 336 336 332 331 324 322 325 325 318 308 303 300 281 279 300 303 309 302 320 305 288
180 187 182 174 162 156 131 121 117 75 53 22 5 348 358 346 335 334 335 327 338 334 335 337 334 329 325 320 318 316 315 308 302 298 301 296 280 277 279 286 288 280 264
176 170 175 154 154 161 140 123 101 85 53 22 12 3 352 339 334 333 320 339 326 334 339 342 330 331 328 325 317 311 307 305 302 293 286 284 284 287 290 294 297 299 299
168 169 166 188 165 148 129 124 90 87 59 25 10 1 349 327 329 330 339 331 330 333 333 336 336 328 321 316 312 311 305 300 298 299 296 295 283 280 281 277 281 286 285
164 174 182 180 159 162 123 113 87 73 46 19 6 1 350 343 331 348 332 320 330 327 335 332 326 320 315 312 309 309 304 303 302 299 295 294 287 287 287 279 285 281 279
174 184 170 170 163 148 118 100 82 63 48 18 9 360 350 352 349 338 328 335 326 330 329 329 324 320 317 316 314 305 301 303 302 300 299 297 290 287 282 279 286 275 278
174 176 167 171 165 146 121 104 72 50 37 20 13 5 360 349 350 341 340 329 329 325 330 328 326 324 319 317 314 312 308 309 301 305 304 304 294 293 286 286 266 269 277
175 166 172 172 151 138 114 106 79 54 35 23 1 359 358 351 342 348 348 334 326 329 329 327 327 322 320 320 318 314 312 313 311 308 304 303 299 294 289 285 284 270 267
173 168 161 157 151 125 110 96 81 51 27 20 8 7 1 352 346 347 347 337 324 331 331 328 326 324 325 322 321 316 315 320 313 307 300 295 296 292 286 285 284 283 280
173 158 112 133 133 114 95 69 51 33 17 9 9 13 2 349 346 345 338 333 330 336 328 329 327 330 327 327 321 334 328 319 311 307 301 299 296 287 282 280 283 280 276
173 155 115 111 111 103 83 61 47 21 358 12 9 7 353 348 349 349 333 328 340 331 330 334 333 330 334 324 344 336 324 315 310 303 298 293 288 290 289 291 290 286 285
171 151 146 147 134 113 78 68 40 14 8 22 5 2 359 356 356 340 329 342 341 339 340 341 331 334 332 344 345 334 323 316 309 304 301 298 301 296 285 282 284 296 288
170 151 153 155 152 148 122 90 54 23 18 20 5 7 2 355 350 334 336 353 347 341 344 337 329 335 334 349 345 337 325 317 313 311 309 308 303 296 301 290 280 283 288
163 149 153 157 142 123 106 65 46 44 25 23 7 8 4 348 352 339 342 349 349 345 343 337 341 339 337 350 345 338 322 321 317 319 316 311 310 311 310 312 308 293 281
145 144 145 141 149 122 97 103 73 57 28 26 17 21 359 352 347 351 342 351 346 350 346 338 344 342 339 351 344 340 329 324 326 323 316 312 318 318 331 319 307 298 288
127 128 141 141 129 109 101 97 86 59 40 27 18 16 2 347 359 357 348 346 348 347 347 350 344 343 344 351 347 345 335 329 332 322 321 325 321 331 326 312 305 303 298
126 139 142 131 118 106 104 99 74 57 37 24 19 21 2 359 4 352 355 344 355 352 349 346 349 348 350 348 349 349 336 334 330 326 329 331 333 328 324 320 313 305 309
129 137 128 113 105 103 112 85 74 52 33 23 24 29 12 7 14 356 357 352 355 354 354 349 349 350 352 350 350 349 341 340 334 332 332 331 334 332 329 328 318 315 309
137 129 119 109 102 98 84 76 57 47 34 27 29 32 24 16 8 11 5 360 2 358 357 353 349 351 349 354 350 350 350 346 339 336 329 330 335 336 335 332 327 324 314
127 124 119 113 95 79 73 74 46 41 38 40 31 32 32 18 22 20 12 15 7 2 357 354 350 346 350 353 350 348 349 348 343 337 332 336 339 339 336 337 336 332 327
127 125 125 111 99 91 74 60 50 30 49 45 36 30 45 5 25 31 15 20 14 6 2 355 351 344 350 353 350 345 343 347 348 338 335 335 338 339 338 340 339 334 333
125 120 114 110 104 92 76 62 51 34 56 50 47 19 30 23 17 35 31 25 35 20 5 2 352 346 349 351 351 352 345 350 348 337 341 343 347 348 344 342 342 336 336
126 119 120 113 104 93 77 62 51 48 38 55 46 31 27 21 17 12 15 59 37 22 18 20 7 347 350 352 354 355 351 356 354 347 352 351 348 347 345 343 340 340 341